This is the latest recevied weather packets stored in our database for station/object E20EHQ-13. If no packets are shown the sender has not sent any weather packets the latest 10 day(s).
| Time | Temp. | Humidity | Pressure | Rain* | Wind** | Luminosity | Snow |
|---|---|---|---|---|---|---|---|
| 1778115564 | 29.44° C | 85% | 1008.5 hPa | 0 mm | - | 117 W/m² | - |
| 1778114962 | 29.44° C | 86% | 1008.5 hPa | 0 mm | - | 115 W/m² | - |
| 1778114362 | 29.44° C | 87% | 1008.4 hPa | 0 mm | - | 119 W/m² | - |
| 1778113762 | 28.89° C | 87% | 1008.3 hPa | 0 mm | - | 171 W/m² | - |
| 1778113162 | 28.89° C | 88% | 1008.2 hPa | 0 mm | - | 133 W/m² | - |
| 1778112563 | 28.89° C | 88% | 1008.1 hPa | 0 mm | - | 165 W/m² | - |
| 1778111963 | 28.89° C | 89% | 1008 hPa | 0 mm | - | 154 W/m² | - |
| 1778111662 | 28.89° C | 90% | 1007.9 hPa | 0 mm | - | 114 W/m² | - |
| 1778111362 | 28.89° C | 90% | 1007.8 hPa | 0 mm | - | 96 W/m² | - |
| 1778110762 | 28.89° C | 90% | 1007.8 hPa | 0 mm | - | 68 W/m² | - |
| 1778110462 | 28.89° C | 90% | 1007.8 hPa | 0 mm | - | 56 W/m² | - |
| 1778110162 | 28.33° C | 90% | 1007.8 hPa | 0 mm | - | 53 W/m² | - |
| 1778096962 | 29.44° C | 88% | 1006.6 hPa | 0 mm | - | 1 W/m² | - |
| 1778096662 | 29.44° C | 88% | 1006.7 hPa | 0 mm | - | 1 W/m² | - |
| 1778096062 | 29.44° C | 88% | 1006.5 hPa | 0 mm | - | 1 W/m² | - |
| 1778095762 | 29.44° C | 88% | 1006.5 hPa | 0 mm | - | 1 W/m² | - |
| 1778095462 | 29.44° C | 88% | 1006.6 hPa | 0 mm | - | 1 W/m² | - |
| 1778094862 | 29.44° C | 88% | 1006.5 hPa | 0 mm | - | 1 W/m² | - |
| 1778094562 | 29.44° C | 88% | 1006.4 hPa | 0 mm | - | 1 W/m² | - |
| 1778093963 | 29.44° C | 87% | 1006.5 hPa | 0 mm | - | 1 W/m² | - |
| 1778093662 | 29.44° C | 87% | 1006.6 hPa | 0 mm | - | 1 W/m² | - |
| 1778093362 | 29.44° C | 87% | 1006.6 hPa | 0 mm | - | 1 W/m² | - |
| 1778092762 | 29.44° C | 87% | 1006.7 hPa | 0 mm | - | 1 W/m² | - |
| 1778092462 | 29.44° C | 86% | 1006.6 hPa | 0 mm | - | 1 W/m² | - |
| 1778092162 | 29.44° C | 86% | 1006.7 hPa | 0 mm | - | 1 W/m² | - |
* Rain latest hour (hover to see other rain measurements)
** Current wind speed in m/s (hover to see current wind gust speed)